Weather in Olshanka

Russia / Tambov Oblast     52°04′54″N   42°30′50″E
temp.,
°C
wind,
m/s
gust,
m/s
humid.,
%
clouds,
%
prec.,
mm/h
press.,
hPa
HPBL,
m
1 july, fri
fri100:00+13nw37765 0.1 1013108
03:00+12nw3591100 0.1 101283
06:00+14wnw498071 0.1 1011246
09:00+19n71057100 0.1 10101070
12:00+17n9106534 1.7 10111455
15:00+17nne8104190 2.2 10122621
18:00+13n796366 0.1 10141216
21:00+9nne5118861 0.6 1016427
2 july, sat
sat200:00+8n71386100 0.4 1015679
03:00+9n91891100 4.7 1013742
06:00+11n9178924 0.1 1013644
09:00+17nne10146957 0.1 10131171
12:00+20nne11146020 0.6 10131740
15:00+21nne914605 1.6 10131892
18:00+19nne713645 0.8 10131382
21:00+15nnw512745 0.8 1014267
3 july, sun
sun300:00+12nnw412740 0.0 1014201
03:00+12nnw410813 0.0 1013176
06:00+14n4107626 0.0 1013273
09:00+16nnw378335 0.3 1014302
12:00+22nnw696119 0.8 10121109
15:00+25n7105047 1.2 10112022
18:00+22nne476381 0.1 1012419
21:00+19n36750 0.1 1013108
4 july, mon
mon400:00+15n47941 0.0 1014129
03:00+14n379637 0.0 1014149
06:00+15nne48892 0.0 1015262
09:00+20nne686093 0.0 1016979
12:00+23ne67455 0.0 10171808
15:00+24nne564123 0.0 10162392
18:00+23n35505 0.0 10161065
21:00+20nnw335586 0.0 101750
5 july, tue
tue500:00+18ne116852 0.0 101811
03:00+15ne117811 0.0 101811
06:00+18ese1173100 0.0 101952
09:00+22w225922 0.0 1019493
12:00+25nw34500 0.0 10191332
15:00+27nw2343100 0.0 10182177
18:00+23wnw236084 0.0 101852
21:00+20sw226713 0.0 101811